When you browse on this site, cookies collect data to enhance your experience and personalize the content and advertising you see.
Visit our Privacy Policy to learn more. By continuing to use the site, you agree to this use of cookies and data.
  • En España
  • Lista de países
  • Para 7 días
  • Temperatura del agua
  • El tiempo en el mapa
  • Informadores
  • user-avatar
    Iniciar sesión

    Tiempo cada hora Newport

    Hoy, 23 Septiembre, Lunes

    Tiempo Temperatura Precipitaciones Viento Presión Humedad
    00:00 +14°C° 0.1 mm 7 mps 752 mmHg 90%
    01:00 +14°C° 0 mm 7 mps 753 mmHg 89%
    02:00 +12°C° 0 mm 8 mps 753 mmHg 88%
    03:00 +12°C° 0 mm 8 mps 753 mmHg 87%
    04:00 +12°C° 0 mm 7 mps 754 mmHg 87%
    05:00 +13°C° 0 mm 6 mps 754 mmHg 88%
    06:00 +11°C° 0 mm 6 mps 754 mmHg 88%
    07:00 +14°C° 0 mm 6 mps 755 mmHg 83%
    08:00 +15°C° 0 mm 6 mps 755 mmHg 78%
    09:00 +16°C° 0 mm 6 mps 755 mmHg 73%
    10:00 +17°C° 0.2 mm 7 mps 755 mmHg 75%
    11:00 +17°C° 0.2 mm 7 mps 755 mmHg 76%
    12:00 +17°C° 0.2 mm 8 mps 755 mmHg 78%
    13:00 +17°C° 0.1 mm 8 mps 755 mmHg 76%
    14:00 +17°C° 0.1 mm 8 mps 755 mmHg 75%
    15:00 +17°C° 0.1 mm 8 mps 754 mmHg 73%
    16:00 +17°C° 0.5 mm 8 mps 754 mmHg 79%
    17:00 +16°C° 0.5 mm 9 mps 754 mmHg 84%
    18:00 +16°C° 0.5 mm 10 mps 753 mmHg 89%
    19:00 +16°C° 0.5 mm 10 mps 753 mmHg 90%
    20:00 +16°C° 0.5 mm 10 mps 753 mmHg 91%
    21:00 +17°C° 0.5 mm 10 mps 753 mmHg 92%
    22:00 +17°C° 0.2 mm 10 mps 753 mmHg 92%
    23:00 +17°C° 0.2 mm 9 mps 752 mmHg 93%

    Mañana, 24 Septiembre, Martes

    Tiempo Temperatura Precipitaciones Viento Presión Humedad
    00:00 +17°C° 0.2 mm 9 mps 752 mmHg 93%
    01:00 +17°C° 0.6 mm 9 mps 751 mmHg 92%
    02:00 +17°C° 0.6 mm 9 mps 750 mmHg 92%
    03:00 +17°C° 0.6 mm 9 mps 750 mmHg 91%
    04:00 +17°C° 3.2 mm 10 mps 749 mmHg 92%
    05:00 +17°C° 3.2 mm 10 mps 748 mmHg 92%
    06:00 +16°C° 3.2 mm 10 mps 748 mmHg 93%
    07:00 +17°C° 4.1 mm 10 mps 747 mmHg 91%
    08:00 +17°C° 4.1 mm 9 mps 747 mmHg 89%
    09:00 +17°C° 4.1 mm 9 mps 747 mmHg 87%
    10:00 +18°C° 0.9 mm 9 mps 747 mmHg 83%
    11:00 +18°C° 0.9 mm 9 mps 747 mmHg 79%
    12:00 +19°C° 0.9 mm 10 mps 747 mmHg 75%
    13:00 +18°C° 0.1 mm 10 mps 748 mmHg 74%
    14:00 +18°C° 0.1 mm 10 mps 748 mmHg 73%
    15:00 +17°C° 0.1 mm 10 mps 748 mmHg 72%
    16:00 +17°C° 0.1 mm 10 mps 748 mmHg 75%
    17:00 +16°C° 0.1 mm 9 mps 748 mmHg 77%
    18:00 +15°C° 0.1 mm 9 mps 748 mmHg 80%
    19:00 +15°C° 0.3 mm 9 mps 748 mmHg 81%
    20:00 +15°C° 0.3 mm 9 mps 749 mmHg 81%
    21:00 +15°C° 0.3 mm 9 mps 749 mmHg 82%
    22:00 +15°C° 0.3 mm 9 mps 748 mmHg 85%
    23:00 +14°C° 0.3 mm 10 mps 748 mmHg 87%

    Pasado mañana, 25 Septiembre, Miércoles

    Tiempo Temperatura Precipitaciones Viento Presión Humedad
    00:00 +14°C° 0.3 mm 11 mps 747 mmHg 89%
    01:00 +14°C° 1 mm 10 mps 747 mmHg 89%
    02:00 +14°C° 1 mm 10 mps 747 mmHg 88%
    03:00 +14°C° 1 mm 10 mps 747 mmHg 87%
    04:00 +14°C° 0.5 mm 10 mps 746 mmHg 87%
    05:00 +14°C° 0.5 mm 11 mps 746 mmHg 86%
    06:00 +14°C° 0.5 mm 11 mps 746 mmHg 85%
    07:00 +14°C° 0.3 mm 12 mps 746 mmHg 86%
    08:00 +14°C° 0.3 mm 12 mps 747 mmHg 86%
    09:00 +14°C° 0.3 mm 12 mps 747 mmHg 87%
    10:00 +16°C° 0.2 mm 11 mps 747 mmHg 83%
    11:00 +17°C° 0.2 mm 10 mps 748 mmHg 80%
    12:00 +17°C° 0.2 mm 10 mps 748 mmHg 77%
    13:00 +18°C° 0.1 mm 9 mps 748 mmHg 76%
    14:00 +18°C° 0.1 mm 9 mps 749 mmHg 74%
    15:00 +18°C° 0.1 mm 9 mps 749 mmHg 72%
    16:00 +18°C° 0 mm 9 mps 749 mmHg 76%
    17:00 +17°C° 0 mm 8 mps 749 mmHg 80%
    18:00 +16°C° 0 mm 8 mps 750 mmHg 84%
    19:00 +16°C° 0 mm 8 mps 750 mmHg 87%
    20:00 +16°C° 0 mm 8 mps 750 mmHg 89%
    21:00 +16°C° 0 mm 8 mps 750 mmHg 92%
    22:00 +16°C° 0.1 mm 8 mps 750 mmHg 91%
    23:00 +17°C° 0.1 mm 9 mps 749 mmHg 91%

    26 Septiembre, Jueves

    Tiempo Temperatura Precipitaciones Viento Presión Humedad
    00:00 +17°C° 0.1 mm 10 mps 749 mmHg 90%
    01:00 +17°C° 0.2 mm 10 mps 749 mmHg 90%
    02:00 +17°C° 0.2 mm 10 mps 749 mmHg 89%
    03:00 +17°C° 0.2 mm 10 mps 749 mmHg 88%
    04:00 +17°C° 0.5 mm 11 mps 749 mmHg 89%
    05:00 +16°C° 0.5 mm 11 mps 749 mmHg 90%
    06:00 +15°C° 0.5 mm 12 mps 749 mmHg 92%
    07:00 +15°C° 1.2 mm 12 mps 749 mmHg 91%
    08:00 +15°C° 1.2 mm 12 mps 749 mmHg 91%
    09:00 +15°C° 1.2 mm 12 mps 750 mmHg 91%
    10:00 +17°C° 0.5 mm 11 mps 750 mmHg 85%
    11:00 +17°C° 0.5 mm 11 mps 750 mmHg 78%
    12:00 +18°C° 0.5 mm 10 mps 750 mmHg 72%
    13:00 +17°C° 0 mm 10 mps 750 mmHg 71%
    14:00 +17°C° 0 mm 11 mps 750 mmHg 71%
    15:00 +17°C° 0 mm 11 mps 750 mmHg 70%
    16:00 +16°C° 0.1 mm 11 mps 751 mmHg 72%
    17:00 +16°C° 0.1 mm 11 mps 751 mmHg 73%
    18:00 +16°C° 0.1 mm 10 mps 751 mmHg 75%
    19:00 +14°C° 0.3 mm 10 mps 751 mmHg 77%
    20:00 +14°C° 0.3 mm 10 mps 752 mmHg 78%
    21:00 +15°C° 0.3 mm 9 mps 752 mmHg 79%
    22:00 +15°C° 0.6 mm 9 mps 752 mmHg 79%
    23:00 +15°C° 0.6 mm 9 mps 751 mmHg 79%

    27 Septiembre, Viernes

    Tiempo Temperatura Precipitaciones Viento Presión Humedad
    00:00 +13°C° 0.6 mm 9 mps 751 mmHg 79%
    01:00 +13°C° 0.6 mm 9 mps 751 mmHg 80%
    02:00 +13°C° 0.6 mm 9 mps 751 mmHg 80%
    03:00 +13°C° 0.6 mm 9 mps 751 mmHg 81%
    04:00 +13°C° 0.3 mm 8 mps 751 mmHg 81%
    05:00 +13°C° 0.3 mm 8 mps 751 mmHg 81%
    06:00 +12°C° 0.3 mm 8 mps 751 mmHg 82%
    07:00 +13°C° 0.4 mm 9 mps 751 mmHg 80%
    08:00 +13°C° 0.4 mm 9 mps 751 mmHg 78%
    09:00 +14°C° 0.4 mm 10 mps 751 mmHg 76%
    10:00 +14°C° 0.3 mm 10 mps 751 mmHg 74%
    11:00 +16°C° 0.3 mm 11 mps 751 mmHg 72%
    12:00 +16°C° 0.3 mm 11 mps 751 mmHg 70%
    13:00 +15°C° 0.1 mm 12 mps 751 mmHg 70%
    14:00 +15°C° 0.1 mm 12 mps 751 mmHg 69%
    15:00 +15°C° 0.1 mm 12 mps 750 mmHg 68%
    16:00 +14°C° 0.1 mm 12 mps 750 mmHg 70%
    17:00 +14°C° 0.1 mm 12 mps 750 mmHg 72%
    18:00 +13°C° 0.1 mm 11 mps 750 mmHg 74%
    19:00 +13°C° 0.2 mm 11 mps 750 mmHg 74%
    20:00 +13°C° 0.2 mm 11 mps 750 mmHg 75%
    21:00 +13°C° 0.2 mm 11 mps 751 mmHg 75%
    22:00 +13°C° 0.2 mm 12 mps 751 mmHg 76%
    23:00 +13°C° 0.2 mm 12 mps 750 mmHg 77%

    28 Septiembre, Sábado

    Tiempo Temperatura Precipitaciones Viento Presión Humedad
    00:00 +13°C° 0.2 mm 12 mps 750 mmHg 77%
    01:00 +13°C° 0.2 mm 12 mps 750 mmHg 79%
    02:00 +13°C° 0.2 mm 12 mps 750 mmHg 80%
    03:00 +13°C° 0.2 mm 11 mps 750 mmHg 81%
    04:00 +13°C° 0.4 mm 11 mps 751 mmHg 82%
    05:00 +13°C° 0.4 mm 11 mps 751 mmHg 83%
    06:00 +13°C° 0.4 mm 11 mps 751 mmHg 84%
    07:00 +13°C° 0.5 mm 11 mps 751 mmHg 82%
    08:00 +14°C° 0.5 mm 11 mps 751 mmHg 81%
    09:00 +14°C° 0.5 mm 11 mps 752 mmHg 79%
    10:00 +14°C° 0.4 mm 11 mps 752 mmHg 79%
    11:00 +14°C° 0.4 mm 11 mps 752 mmHg 78%
    12:00 +14°C° 0.4 mm 11 mps 753 mmHg 78%
    13:00 +14°C° 0.4 mm 11 mps 752 mmHg 78%
    14:00 +14°C° 0.4 mm 11 mps 752 mmHg 77%
    15:00 +14°C° 0.4 mm 11 mps 752 mmHg 77%
    16:00 +14°C° 0.2 mm 10 mps 752 mmHg 79%
    17:00 +14°C° 0.2 mm 10 mps 752 mmHg 81%
    18:00 +13°C° 0.2 mm 9 mps 753 mmHg 83%
    19:00 +13°C° 0.2 mm 9 mps 753 mmHg 84%
    20:00 +12°C° 0.2 mm 9 mps 753 mmHg 85%
    21:00 +12°C° 0.2 mm 8 mps 753 mmHg 86%
    22:00 +12°C° 0.1 mm 8 mps 753 mmHg 86%
    23:00 +12°C° 0.1 mm 7 mps 752 mmHg 86%
    Mostrar más